Time,TemperatureF,DewpointF,PressureIn,WindDirection,WindDirectionDegrees,WindSpeedMPH,WindSpeedGustMPH,Humidity,HourlyPrecipIn,Conditions,Clouds,dailyrainin,SoftwareType,DateUTC
2013-01-16 00:03:00,21.6,2.5,29.56,South,171,0.0,0.0,43,0.00,,---,0.00,VWS V14.01,2013-01-16 06:03:00,
2013-01-16 00:08:00,21.7,2.7,29.56,SSE,151,0.0,0.0,43,0.00,,---,0.00,VWS V14.01,2013-01-16 06:08:00,
2013-01-16 00:13:00,21.9,2.9,29.56,SSE,161,0.0,0.0,43,0.00,,---,0.00,VWS V14.01,2013-01-16 06:13:00,
2013-01-16 00:18:00,22.1,3.0,29.56,ESE,113,0.0,0.0,43,0.00,,---,0.00,VWS V14.01,2013-01-16 06:18:00,
2013-01-16 00:23:00,22.1,3.0,29.56,SE,137,0.0,0.0,43,0.00,,---,0.00,VWS V14.01,2013-01-16 06:23:00,
2013-01-16 00:28:00,22.3,3.2,29.56,SE,125,0.0,0.0,43,0.00,,---,0.00,VWS V14.01,2013-01-16 06:28:00,
2013-01-16 00:33:00,22.3,3.7,29.53,SSW,199,0.0,0.0,44,0.00,,---,0.00,VWS V14.01,2013-01-16 06:33:00,
2013-01-16 00:39:00,22.3,4.2,29.53,SE,129,0.0,0.0,45,0.00,,---,0.00,VWS V14.01,2013-01-16 06:39:00,
2013-01-16 00:45:00,22.3,4.7,29.53,South,176,0.0,0.0,46,0.00,,---,0.00,VWS V14.01,2013-01-16 06:45:00,
2013-01-16 00:50:00,22.3,5.1,29.53,South,173,0.0,0.0,47,0.00,,---,0.00,VWS V14.01,2013-01-16 06:50:00,
2013-01-16 00:55:00,22.3,5.6,29.53,SSW,193,0.0,0.0,48,0.00,,---,0.00,VWS V14.01,2013-01-16 06:55:00,
2013-01-16 01:00:00,22.3,5.6,29.53,SSE,153,0.0,0.0,48,0.00,,---,0.00,VWS V14.01,2013-01-16 07:00:00,
2013-01-16 01:06:00,22.3,6.5,29.50,South,179,0.0,0.0,50,0.00,,---,0.00,VWS V14.01,2013-01-16 07:06:00,
2013-01-16 01:11:00,22.3,6.9,29.50,SSE,166,0.0,0.0,51,0.00,,---,0.00,VWS V14.01,2013-01-16 07:11:00,
2013-01-16 01:16:00,22.3,7.3,29.50,SSE,157,0.0,0.0,52,0.00,,---,0.00,VWS V14.01,2013-01-16 07:16:00,
2013-01-16 01:21:00,22.3,7.3,29.50,SE,133,0.0,0.0,52,0.00,,---,0.00,VWS V14.01,2013-01-16 07:21:00,
2013-01-16 01:27:00,22.5,7.5,29.50,South,184,0.0,0.0,52,0.00,,---,0.00,VWS V14.01,2013-01-16 07:27:00,
2013-01-16 01:32:00,22.5,7.5,29.50,SSE,163,0.0,0.0,52,0.00,,---,0.00,VWS V14.01,2013-01-16 07:32:00,
2013-01-16 01:38:00,22.6,8.1,29.50,SSW,195,0.0,0.0,53,0.00,,---,0.00,VWS V14.01,2013-01-16 07:38:00,
2013-01-16 01:43:00,22.6,8.1,29.50,SSE,159,0.0,0.0,53,0.00,,---,0.00,VWS V14.01,2013-01-16 07:43:00,
2013-01-16 01:48:00,22.8,8.7,29.50,SSW,194,0.0,0.0,54,0.00,,---,0.00,VWS V14.01,2013-01-16 07:48:00,
2013-01-16 01:53:00,22.8,9.1,29.50,South,177,0.0,0.0,55,0.00,,---,0.00,VWS V14.01,2013-01-16 07:53:00,
2013-01-16 01:59:00,23.0,9.2,29.50,SSE,159,0.0,0.0,55,0.00,,---,0.00,VWS V14.01,2013-01-16 07:59:00,
2013-01-16 02:04:00,23.0,9.7,29.50,South,189,0.0,0.0,56,0.00,,---,0.00,VWS V14.01,2013-01-16 08:04:00,
2013-01-16 02:10:00,23.2,10.2,29.50,South,177,0.0,0.0,57,0.00,,---,0.00,VWS V14.01,2013-01-16 08:10:00,
2013-01-16 02:15:00,23.2,11.0,29.50,SSE,163,0.0,0.0,59,0.00,,---,0.00,VWS V14.01,2013-01-16 08:15:00,
2013-01-16 02:20:00,23.2,11.4,29.50,South,176,0.0,0.0,60,0.00,,---,0.00,VWS V14.01,2013-01-16 08:20:00,
2013-01-16 02:25:00,23.2,11.7,29.50,South,171,0.0,0.0,61,0.00,,---,0.00,VWS V14.01,2013-01-16 08:25:00,
2013-01-16 02:30:00,23.2,12.5,29.50,SSW,205,0.0,0.0,63,0.00,,---,0.00,VWS V14.01,2013-01-16 08:30:00,
2013-01-16 02:35:00,23.2,12.8,29.50,SSE,163,0.0,0.0,64,0.00,,---,0.00,VWS V14.01,2013-01-16 08:35:00,
2013-01-16 02:40:00,23.2,13.5,29.50,South,179,0.0,0.0,66,0.00,,---,0.00,VWS V14.01,2013-01-16 08:40:00,
2013-01-16 02:46:00,23.4,14.0,29.50,South,180,0.0,0.0,67,0.00,,---,0.00,VWS V14.01,2013-01-16 08:46:00,
2013-01-16 02:51:00,23.5,14.9,29.50,South,182,0.0,0.0,69,0.00,,---,0.00,VWS V14.01,2013-01-16 08:51:00,
2013-01-16 02:56:00,23.5,15.2,29.50,South,178,0.0,0.0,70,0.00,,---,0.00,VWS V14.01,2013-01-16 08:56:00,
2013-01-16 03:02:00,23.7,15.7,29.50,SSW,194,0.0,0.0,71,0.00,,---,0.00,VWS V14.01,2013-01-16 09:02:00,
2013-01-16 03:07:00,23.9,15.9,29.50,South,191,0.0,0.0,71,0.00,,---,0.00,VWS V14.01,2013-01-16 09:07:00,
2013-01-16 03:13:00,24.1,16.4,29.50,SSW,206,0.0,0.0,72,0.00,,---,0.00,VWS V14.01,2013-01-16 09:13:00,
2013-01-16 16:51:00,15.6,-7.8,29.91,NNW,333,2.2,4.0,34,0.00,,---,0.00,VWS V14.01,2013-01-16 22:51:00,
2013-01-16 16:57:00,15.1,-8.2,29.91,NW,318,3.6,6.3,34,0.00,,---,0.00,VWS V14.01,2013-01-16 22:57:00,
2013-01-16 17:03:00,14.9,-8.4,29.91,NW,308,2.2,3.6,34,0.00,,---,0.00,VWS V14.01,2013-01-16 23:03:00,
2013-01-16 17:08:00,14.5,-8.7,29.91,NW,323,0.0,0.0,34,0.00,,---,0.00,VWS V14.01,2013-01-16 23:08:00,
2013-01-16 17:14:00,14.0,-9.2,29.91,NW,313,0.0,6.7,34,0.00,,---,0.00,VWS V14.01,2013-01-16 23:14:00,
2013-01-16 17:20:00,13.6,-9.5,29.94,NW,305,3.6,4.0,34,0.00,,---,0.00,VWS V14.01,2013-01-16 23:20:00,
2013-01-16 17:25:00,13.5,-9.7,29.94,NNW,342,6.3,6.3,34,0.00,,---,0.00,VWS V14.01,2013-01-16 23:25:00,
2013-01-16 17:30:00,13.5,-9.7,29.94,NW,307,3.1,5.4,34,0.00,,---,0.00,VWS V14.01,2013-01-16 23:30:00,
2013-01-16 17:35:00,13.5,-9.7,29.94,WNW,293,5.4,8.1,34,0.00,,---,0.00,VWS V14.01,2013-01-16 23:35:00,
2013-01-16 17:40:00,13.3,-9.8,29.94,NW,305,5.8,6.3,34,0.00,,---,0.00,VWS V14.01,2013-01-16 23:40:00,
2013-01-16 17:45:00,13.3,-9.8,29.94,WNW,290,5.4,10.1,34,0.00,,---,0.00,VWS V14.01,2013-01-16 23:45:00,
2013-01-16 17:51:00,13.1,-10.0,29.97,NW,307,5.8,8.7,34,0.00,,---,0.00,VWS V14.01,2013-01-16 23:51:00,
2013-01-16 17:56:00,12.9,-10.1,29.97,NW,308,8.3,10.1,34,0.00,,---,0.00,VWS V14.01,2013-01-16 23:56:00,
2013-01-16 18:01:00,12.7,-10.3,29.97,NW,306,5.4,8.1,34,0.00,,---,0.00,VWS V14.01,2013-01-17 00:01:00,
2013-01-16 18:06:00,12.6,-10.5,30.00,NW,306,6.3,6.3,34,0.00,,---,0.00,VWS V14.01,2013-01-17 00:06:00,
2013-01-16 18:11:00,12.2,-10.8,30.00,WNW,293,6.3,8.3,34,0.00,,---,0.00,VWS V14.01,2013-01-17 00:11:00,
2013-01-16 18:17:00,11.8,-11.1,30.00,WNW,291,5.8,8.1,34,0.00,,---,0.00,VWS V14.01,2013-01-17 00:17:00,
2013-01-16 18:22:00,11.7,-11.3,30.00,NNW,331,10.1,10.1,34,0.00,,---,0.00,VWS V14.01,2013-01-17 00:22:00,
2013-01-16 18:28:00,11.3,-11.6,30.00,NW,319,7.6,8.3,34,0.00,,---,0.00,VWS V14.01,2013-01-17 00:28:00,
2013-01-16 18:34:00,10.9,-11.9,30.03,WNW,299,10.1,10.5,34,0.00,,---,0.00,VWS V14.01,2013-01-17 00:34:00,
2013-01-16 18:40:00,10.8,-12.1,30.03,WNW,300,5.8,8.7,34,0.00,,---,0.00,VWS V14.01,2013-01-17 00:40:00,
2013-01-16 18:45:00,10.2,-12.6,30.03,NW,319,5.8,9.6,34,0.00,,---,0.00,VWS V14.01,2013-01-17 00:45:00,
2013-01-16 18:51:00,9.9,-12.9,30.00,NW,326,5.8,6.3,34,0.00,,---,0.00,VWS V14.01,2013-01-17 00:51:00,
2013-01-16 18:56:00,9.7,-13.0,30.00,NNW,340,3.1,5.4,34,0.00,,---,0.00,VWS V14.01,2013-01-17 00:56:00,
2013-01-16 19:02:00,9.3,-13.4,30.00,NNE,27,3.1,5.4,34,0.00,,---,0.00,VWS V14.01,2013-01-17 01:02:00,
2013-01-16 19:07:00,9.1,-13.5,30.00,NW,314,3.1,4.9,34,0.00,,---,0.00,VWS V14.01,2013-01-17 01:07:00,
2013-01-16 19:13:00,8.8,-13.9,30.00,North,357,6.3,6.3,34,0.00,,---,0.00,VWS V14.01,2013-01-17 01:13:00,
2013-01-16 19:18:00,8.8,-13.9,30.03,NW,326,3.1,3.6,34,0.00,,---,0.00,VWS V14.01,2013-01-17 01:18:00,
2013-01-16 19:24:00,8.8,-13.9,30.03,WNW,286,4.9,5.4,34,0.00,,---,0.00,VWS V14.01,2013-01-17 01:24:00,
2013-01-16 19:29:00,8.6,-14.0,30.03,NW,304,3.1,3.1,34,0.00,,---,0.00,VWS V14.01,2013-01-17 01:29:00,
2013-01-16 19:35:00,8.4,-14.2,30.03,North,349,0.0,0.0,34,0.00,,---,0.00,VWS V14.01,2013-01-17 01:35:00,
2013-01-16 19:40:00,8.1,-14.5,30.03,NNW,328,0.0,4.0,34,0.00,,---,0.00,VWS V14.01,2013-01-17 01:40:00,
2013-01-16 19:45:00,7.9,-14.6,30.03,NW,311,3.6,4.9,34,0.00,,---,0.00,VWS V14.01,2013-01-17 01:45:00,
2013-01-16 19:51:00,7.9,-14.6,30.06,NW,312,5.4,6.3,34,0.00,,---,0.00,VWS V14.01,2013-01-17 01:51:00,
2013-01-16 19:57:00,7.7,-14.8,30.06,NW,320,4.0,5.4,34,0.00,,---,0.00,VWS V14.01,2013-01-17 01:57:00,
2013-01-16 20:03:00,7.5,-15.0,30.06,NW,321,7.6,7.6,34,0.00,,---,0.00,VWS V14.01,2013-01-17 02:03:00,
2013-01-16 20:08:00,7.3,-15.1,30.06,NW,326,3.1,5.8,34,0.00,,---,0.00,VWS V14.01,2013-01-17 02:08:00,
2013-01-16 20:14:00,7.2,-15.3,30.06,NNW,339,0.0,4.9,34,0.00,,---,0.00,VWS V14.01,2013-01-17 02:14:00,
2013-01-16 20:20:00,7.2,-15.3,30.06,NW,312,0.0,5.4,34,0.00,,---,0.00,VWS V14.01,2013-01-17 02:20:00,
2013-01-16 20:25:00,7.0,-15.4,30.06,NNW,330,4.9,5.4,34,0.00,,---,0.00,VWS V14.01,2013-01-17 02:25:00,
2013-01-16 20:31:00,7.0,-15.4,30.06,WNW,295,2.7,4.0,34,0.00,,---,0.00,VWS V14.01,2013-01-17 02:31:00,
2013-01-16 20:37:00,7.0,-15.4,30.06,WNW,292,6.3,6.3,34,0.00,,---,0.00,VWS V14.01,2013-01-17 02:37:00,
2013-01-16 20:42:00,6.8,-15.6,30.06,NW,305,4.0,5.8,34,0.00,,---,0.00,VWS V14.01,2013-01-17 02:42:00,
2013-01-16 20:47:00,6.4,-15.9,30.06,NW,326,8.1,8.1,34,0.00,,---,0.00,VWS V14.01,2013-01-17 02:47:00,
2013-01-16 20:52:00,6.3,-16.1,30.06,WNW,294,3.6,5.8,34,0.00,,---,0.00,VWS V14.01,2013-01-17 02:52:00,
2013-01-16 20:58:00,6.1,-16.3,30.06,WNW,292,5.8,5.8,34,0.00,,---,0.00,VWS V14.01,2013-01-17 02:58:00,
2013-01-16 21:04:00,5.9,-16.4,30.06,NW,323,5.8,5.8,34,0.00,,---,0.00,VWS V14.01,2013-01-17 03:04:00,
2013-01-16 21:09:00,5.7,-16.6,30.06,NW,321,5.8,6.3,34,0.00,,---,0.00,VWS V14.01,2013-01-17 03:09:00,
2013-01-16 21:14:00,5.5,-16.7,30.06,West,279,4.0,4.0,34,0.00,,---,0.00,VWS V14.01,2013-01-17 03:14:00,
2013-01-16 21:19:00,5.5,-16.7,30.06,NW,316,6.3,6.3,34,0.00,,---,0.00,VWS V14.01,2013-01-17 03:19:00,
2013-01-16 21:24:00,5.5,-16.7,30.06,West,278,6.3,6.3,34,0.00,,---,0.00,VWS V14.01,2013-01-17 03:24:00,
2013-01-16 21:30:00,5.4,-16.9,30.06,NW,313,5.8,7.2,34,0.00,,---,0.00,VWS V14.01,2013-01-17 03:30:00,
2013-01-16 21:35:00,5.2,-17.1,30.06,WNW,293,3.1,5.4,34,0.00,,---,0.00,VWS V14.01,2013-01-17 03:35:00,
2013-01-16 21:40:00,5.0,-17.2,30.06,West,279,5.8,6.3,34,0.00,,---,0.00,VWS V14.01,2013-01-17 03:40:00,
2013-01-16 21:45:00,5.0,-17.2,30.06,WNW,282,3.1,7.6,34,0.00,,---,0.00,VWS V14.01,2013-01-17 03:45:00,
2013-01-16 21:50:00,5.0,-17.2,30.06,WNW,289,4.9,5.8,34,0.00,,---,0.00,VWS V14.01,2013-01-17 03:50:00,
2013-01-16 21:56:00,5.0,-17.2,30.06,WNW,302,3.1,5.8,34,0.00,,---,0.00,VWS V14.01,2013-01-17 03:56:00,
2013-01-16 22:02:00,5.0,-17.2,30.09,WNW,303,6.3,8.3,34,0.00,,---,0.00,VWS V14.01,2013-01-17 04:02:00,
2013-01-16 22:07:00,4.8,-17.4,30.09,West,277,4.0,6.3,34,0.00,,---,0.00,VWS V14.01,2013-01-17 04:07:00,
2013-01-16 22:12:00,4.6,-17.5,30.09,West,261,7.6,8.3,34,0.00,,---,0.00,VWS V14.01,2013-01-17 04:12:00,
2013-01-16 22:18:00,4.5,-17.7,30.09,West,279,6.7,7.6,34,0.00,,---,0.00,VWS V14.01,2013-01-17 04:18:00,
2013-01-16 22:23:00,4.5,-17.7,30.09,West,264,5.8,6.3,34,0.00,,---,0.00,VWS V14.01,2013-01-17 04:23:00,
2013-01-16 22:28:00,4.5,-17.7,30.09,WNW,290,6.3,6.3,34,0.00,,---,0.00,VWS V14.01,2013-01-17 04:28:00,
2013-01-16 22:33:00,4.5,-17.7,30.12,WNW,285,4.9,8.1,34,0.00,,---,0.00,VWS V14.01,2013-01-17 04:33:00,
2013-01-16 22:38:00,4.6,-17.5,30.12,WSW,256,6.7,7.6,34,0.00,,---,0.00,VWS V14.01,2013-01-17 04:38:00,
2013-01-16 22:43:00,4.6,-17.5,30.12,WSW,254,7.6,7.6,34,0.00,,---,0.00,VWS V14.01,2013-01-17 04:43:00,
2013-01-16 22:49:00,4.5,-17.7,30.12,West,275,8.3,8.7,34,0.00,,---,0.00,VWS V14.01,2013-01-17 04:49:00,
2013-01-16 22:54:00,4.3,-17.9,30.12,West,269,8.3,8.7,34,0.00,,---,0.00,VWS V14.01,2013-01-17 04:54:00,
2013-01-16 22:59:00,4.1,-18.0,30.12,West,273,6.3,13.2,34,0.00,,---,0.00,VWS V14.01,2013-01-17 04:59:00,
2013-01-16 23:02:00,4.1,-18.0,30.12,West,281,6.7,10.1,34,0.00,,---,0.00,VWS V14.01,2013-01-17 05:02:00,
2013-01-16 23:03:00,4.1,-18.0,30.12,WNW,282,6.7,8.7,34,0.00,,---,0.00,VWS V14.01,2013-01-17 05:03:00,
2013-01-16 23:08:00,3.9,-18.2,30.12,WNW,292,8.3,8.7,34,0.00,,---,0.00,VWS V14.01,2013-01-17 05:08:00,
2013-01-16 23:13:00,3.7,-18.4,30.12,WNW,287,4.0,8.1,34,0.00,,---,0.00,VWS V14.01,2013-01-17 05:13:00,
2013-01-16 23:17:00,3.7,-18.4,30.12,West,266,5.8,10.1,34,0.00,,---,0.00,VWS V14.01,2013-01-17 05:17:00,
2013-01-16 23:22:00,3.6,-18.5,30.12,West,266,9.2,9.2,34,0.00,,---,0.00,VWS V14.01,2013-01-17 05:22:00,
2013-01-16 23:28:00,3.4,-18.7,30.12,WNW,300,6.3,8.7,34,0.00,,---,0.00,VWS V14.01,2013-01-17 05:28:00,
2013-01-16 23:34:00,3.2,-18.8,30.12,WNW,287,7.6,8.7,34,0.00,,---,0.00,VWS V14.01,2013-01-17 05:34:00,
2013-01-16 23:40:00,3.0,-19.0,30.12,WNW,285,8.1,8.1,34,0.00,,---,0.00,VWS V14.01,2013-01-17 05:40:00,
2013-01-16 23:45:00,3.0,-19.0,30.12,WNW,295,5.4,8.3,34,0.00,,---,0.00,VWS V14.01,2013-01-17 05:45:00,
2013-01-16 23:51:00,2.8,-19.1,30.12,NW,311,5.8,7.6,34,0.00,,---,0.00,VWS V14.01,2013-01-17 05:51:00,
2013-01-16 23:56:00,2.8,-19.1,30.12,WNW,301,5.4,8.7,34,0.00,,---,0.00,VWS V14.01,2013-01-17 05:56:00,